Weather in Tunoshna

Russia / Yaroslavl Oblast     57°32′34″N   40°07′24″E
temp.,
°C
wind,
m/s
gust,
m/s
humid.,
%
clouds,
%
prec.,
mm/h
press.,
hPa
HPBL,
m
12 april, mon
mon1200:00+7se2392100 0.0 103349
03:00+6sse238699 0.0 103440
06:00+5sse35895 0.0 103688
09:00+10sse487120 0.0 1036329
12:00+12se5762100 0.0 1035736
15:00+14se6859100 0.0 1034965
18:00+11ese51171100 0.0 1033665
21:00+9se51383100 0.0 1032605
13 april, tue
tue1300:00+8se5128495 0.0 1031402
03:00+6se4109595 0.0 1030261
06:00+5se399782 0.0 1029217
09:00+10sse41178100 0.0 1027323
12:00+16s6105574 0.0 1026641
15:00+18s6946100 0.0 10251167
18:00+15s4953100 0.0 1024247
21:00+11s3107092 0.0 1025153
14 april, wed
wed1400:00+9s397299 0.0 1024132
03:00+8s387493 0.0 1024117
06:00+7s310766 0.0 1024152
09:00+13s5115523 0.0 1023363
12:00+18s68405 0.0 1022861
15:00+19s5736100 0.0 10211505
18:00+16s3749100 0.0 1020155
21:00+11s346257 0.0 102051
15 april, thu
thu1500:00+10ssw347074 0.0 101949
03:00+8ssw2273100 0.0 101925
06:00+8s2273100 0.0 101911
09:00+12sse1257100 0.0 1019227
12:00+16sse1244100 0.0 1018686
15:00+18se1139100 0.0 10181214
18:00+16ne2250100 0.0 101716
21:00+10nne51082100 0.0 1018370
16 april, fri
fri1600:00+7nne5987100 0.0 1019346
03:00+6nne51088100 0.0 1019371
06:00+5nne51190100 0.0 1020503
09:00+4nne51193100 1.3 1022577
12:00+9nne795397 0.3 10231185
15:00+10nne79380 0.3 10241519
18:00+9ne69463 0.0 10251392
21:00+5nne412625 0.0 1027376